Flag for Germany Weather past 2 weeks in Bietigheim-Bissingen, Baden-Württemberg, Germany

Now
44 °F

Scattered clouds.


Feels Like: 43 °F
Forecast: 50 / 53 °F
Wind: 3 mph from Southwest

Location: Stuttgart-Echterdingen

Current Time: Mar 28, 2015 at 10:35:10 AM

Latest Report: Mar 28, 2015 at 9:00 AM


Visibility: 31 mi

Pressure: 30.25 "Hg

Humidity: 60%

Dew point: 31 °F

Location of Bietigheim-BissingenLocation

Historic Weather in Bietigheim-Bissingen — Graph

°F

Bietigheim-Bissingen temperature yesterday

Maximum temperature yesterday: 49 °F (at 1:00 PM)
Minimum temperature yesterday: 37 °F (at 11:00 PM)
Average temperature yesterday: 44 °F

Past Weeks' High & Low Weather Summary

 TemperatureHumidityPressure
High65 °F (Mar 17, 3:00 PM)97% (Mar 24, 6:00 AM)30.30 "Hg (Mar 24, 6:00 AM)
Low30 °F (Mar 24, 7:00 AM)29% (Mar 17, 4:00 PM)29.56 "Hg (Mar 25, 3:00 PM)
Average44 °F68%30.09 "Hg
* Reported Mar 13 9:00 AM — Mar 28 9:00 AM, Bietigheim-Bissingen, Weather by CustomWeather, © 2015

Note: Actual official high and low records may vary slightly from our data, if they occured in-between our weather recording intervals... More about our weather records

Advertising

Bietigheim-Bissingen weather history for previous 24 hours

 ConditionsComfort  
Time TempWeatherWind HumidityBarometerVisibility
9:00 AM
Sat, Mar 28
44 °FScattered clouds.3 mph60%30.25 "Hg31 mi
8:00 AM37 °FPartly sunny.3 mph76%30.28 "Hg37 mi
7:00 AM34 °FPartly sunny.3 mph81%30.29 "Hg31 mi
6:00 AM33 °FPartly sunny.3 mph76%30.29 "Hg16 mi
5:00 AM37 °FOvercast.3 mph73%30.29 "Hg16 mi
3:00 AM38 °FOvercast.3 mph72%30.29 "Hg16 mi
2:00 AM35 °FClear.3 mph78%30.30 "Hg16 mi
1:00 AM35 °FOvercast.5 mph76%30.29 "Hg16 mi
12:00 AM38 °FPassing clouds.3 mph71%30.29 "Hg16 mi
11:00 PM
Fri, Mar 27
37 °FPassing clouds.3 mph67%30.28 "Hg19 mi
10:00 PM43 °FPassing clouds.7 mph59%30.26 "Hg19 mi
9:00 PM44 °FOvercast.3 mph61%30.24 "Hg19 mi
8:00 PM46 °FOvercast.5 mph53%30.21 "Hg25 mi
7:00 PM47 °FOvercast.7 mph48%30.19 "Hg31 mi
6:00 PM48 °FOvercast.6 mph49%30.18 "Hg31 mi
5:00 PM48 °FOvercast.8 mph47%30.15 "Hg31 mi
3:00 PM49 °FOvercast.8 mph50%30.12 "Hg34 mi
2:00 PM47 °FOvercast.8 mph55%30.11 "Hg31 mi
1:00 PM49 °FPartly sunny.9 mph49%30.10 "Hg31 mi
12:00 PM47 °FOvercast.9 mph50%30.09 "Hg31 mi
11:00 AM47 °FPartly sunny.12 mph50%30.09 "Hg28 mi
Weather by CustomWeather, © 2015

See weather overviewHow to use our weather pages